RH
82 85 84 85 84 85 85 88 89 85 86 84 86 89 83 84 83 85 79 83 80 80 83 78 84 85 86 85 87 87 87 92 94 84 84 86 91 91 90 91 91 93 94
90 88 87 86 83 85 89 87 88 90 84 82 84 86 93 88 88 91 90 88 91 83 83 82 90 87 90 86 82 89 90 88 92 91 83 89 90 91 92 94 90 85 89
94 94 93 92 86 95 95 91 90 92 89 86 84 90 92 87 87 92 92 91 94 92 92 90 92 91 93 94 91 89 87 87 89 86 88 87 89 91 92 90 94 93 82
92 95 97 98 97 96 95 96 94 94 93 93 94 94 94 90 80 85 89 92 92 88 86 90 88 86 91 95 93 94 92 90 90 89 86 91 92 87 93 96 96 97 96
84 88 93 97 98 96 95 95 95 93 94 94 94 93 94 91 88 89 92 94 95 92 87 84 85 72 74 76 91 95 93 91 90 89 88 87 92 90 96 97 98 99 97
84 84 86 91 90 91 87 88 80 92 94 93 93 94 95 89 65 67 80 96 95 96 93 89 90 81 81 75 77 82 84 94 94 91 92 94 95 96 94 97 97 96 96
87 82 86 95 88 85 83 78 79 82 89 92 94 91 90 90 66 67 69 94 95 94 97 88 87 85 79 86 77 79 84 82 90 95 94 96 95 96 96 95 97 96 97
80 78 79 82 83 82 82 78 82 79 84 84 89 86 82 73 66 68 67 79 81 85 86 79 79 76 72 75 76 82 87 90 89 93 95 96 96 95 96 98 98 98 96
84 82 76 76 78 80 87 89 86 83 82 88 83 89 89 85 66 70 69 73 73 86 77 78 70 69 64 68 67 69 82 89 77 73 77 82 85 84 88 90 94 95 96
82 86 89 82 83 85 88 96 90 86 81 81 78 92 84 92 79 67 73 75 93 90 90 90 66 68 65 64 71 77 88 92 89 86 85 83 85 88 86 92 91 93 95
78 80 85 89 91 92 94 96 94 90 86 93 89 94 95 90 92 66 79 92 98 94 93 92 87 68 66 67 70 80 80 86 85 86 85 85 84 86 88 87 91 92 92
77 79 84 84 72 79 92 95 92 93 94 95 90 92 92 94 75 69 71 75 86 96 97 97 90 70 75 69 73 68 73 82 85 86 85 88 89 89 88 88 88 86 86
76 79 78 64 66 71 83 91 93 91 96 89 87 96 95 91 94 75 68 71 79 95 92 82 78 81 82 93 76 78 90 87 89 90 92 92 92 89 83 84 81 81 79
71 69 77 65 63 63 60 67 85 91 92 81 89 96 97 94 97 97 91 92 78 88 96 94 92 89 88 92 92 93 94 93 92 94 94 92 87 84 83 84 86 82 80
57 60 67 57 58 63 68 78 75 95 75 85 95 96 98 99 95 78 80 95 96 90 94 92 93 95 93 92 91 93 94 93 92 91 92 88 86 83 81 78 79 78 81
52 56 66 65 67 70 80 93 70 82 69 68 70 94 95 84 66 64 63 65 71 77 92 98 100 99 98 96 96 94 93 94 92 87 86 83 82 80 75 68 70 75 74
52 51 66 68 75 88 89 91 97 84 74 67 65 62 79 69 65 65 65 70 71 78 94 99 100 100 97 88 88 89 93 91 87 84 86 84 78 71 72 67 68 67 67
75 73 76 85 89 94 96 97 97 97 98 98 85 82 75 70 67 66 65 71 92 87 88 95 100 95 86 80 81 87 89 90 90 84 88 91 94 79 79 73 70 81 72
76 91 93 95 94 93 97 97 97 98 96 96 96 95 94 70 73 75 79 94 97 95 87 88 96 93 92 87 98 98 100 97 96 100 96 95 99 88 86 78 81 86 78
90 94 92 95 97 97 97 97 99 98 96 96 95 98 98 91 99 100 100 100 100 95 93 89 92 92 97 92 98 100 98 98 96 93 98 100 100 93 91 88 88 87 78
92 93 92 92 94 94 95 96 97 98 98 97 98 100 97 94 99 99 98 100 98 95 98 95 98 99 97 97 92 100 97 100 97 96 95 94 100 96 88 87 88 84 79
90 88 88 90 92 96 95 94 97 96 93 95 99 97 100 99 98 98 100 100 100 97 96 99 97 95 95 95 99 100 99 100 100 100 96 97 94 93 92 90 92 92 86
90 91 88 88 89 96 97 96 97 96 96 98 97 98 100 100 100 99 100 100 98 99 98 97 100 98 97 100 100 98 100 100 98 100 100 100 94 93 97 94 93 92 96
89 92 90 93 95 96 96 98 98 98 96 99 100 100 100 100 100 100 100 100 100 100 100 100 100 99 97 100 99 98 95 99 99 99 99 100 95 93 95 93 93 96 95
92 94 93 92 93 96 97 97 98 98 98 100 100 100 100 100 100 100 100 100 100 100 99 100 100 100 100 100 100 98 97 100 100 100 99 99 98 99 97 95 98 92 95
90 91 93 93 95 96 95 97 98 98 100 100 100 100 100 99 99 100 100 100 99 100 99 100 98 97 98 95 94 98 100 100 99 100 100 95 95 95 96 96 94 95 90
Wind_Speed
6 5 5 4 4 4 5 5 5 5 6 7 7 7 9 9 10 10 10 11 12 12 12 13 13 13 10 10 10 10 8 8 8 8 9 11 9 13 12 10 9 9 13
6 6 6 5 5 5 5 5 5 6 7 6 7 7 6 8 9 10 10 10 11 13 13 14 13 11 12 12 10 13 11 10 9 12 9 11 14 12 13 10 9 9 10
6 6 6 5 5 4 3 4 5 5 6 7 8 7 6 6 9 8 8 9 8 9 10 11 11 11 11 10 11 12 11 10 9 7 8 9 10 12 13 9 10 9 9
6 5 6 5 4 3 2 3 4 4 6 6 6 5 5 4 8 9 9 9 9 9 10 11 11 11 11 11 10 12 12 11 11 9 8 8 10 12 8 8 4 9 6
7 7 6 7 5 3 3 3 2 5 4 5 6 6 6 4 5 6 8 8 8 9 10 11 12 18 20 18 8 11 12 11 11 10 10 8 10 10 13 9 5 2 9
6 6 7 9 8 6 4 3 4 4 5 5 6 6 6 5 15 17 13 7 8 8 9 10 8 15 15 19 20 22 20 14 13 11 10 12 14 12 9 9 8 4 4
7 7 7 8 8 7 5 4 4 4 4 5 6 6 7 4 17 16 17 6 6 6 6 9 10 10 13 9 15 18 20 25 18 11 13 13 12 14 11 10 10 7 6
8 8 7 7 8 7 6 5 4 4 4 5 6 6 6 7 14 14 13 7 8 9 10 10 12 14 18 14 12 12 12 13 15 11 12 12 13 14 12 9 10 7 6
8 8 8 7 7 7 7 6 5 4 4 4 5 6 7 8 14 12 9 6 8 9 11 10 11 13 25 25 14 14 13 13 15 23 22 24 25 29 25 9 12 8 5
8 7 6 6 6 6 6 7 5 5 5 4 6 5 9 7 15 13 8 5 5 5 6 8 21 18 24 25 14 12 12 12 12 13 13 15 18 19 25 16 11 10 5
8 7 7 6 6 5 5 4 5 4 6 4 4 4 5 7 7 14 13 5 2 3 5 6 6 20 22 23 20 13 14 9 11 9 9 10 11 12 11 11 12 11 10
9 9 8 7 6 5 7 5 6 6 5 3 3 4 4 5 11 13 14 12 11 5 6 3 6 17 18 21 15 22 21 10 8 8 9 11 11 11 11 10 11 9 8
10 9 8 8 7 7 6 6 5 5 3 2 3 2 3 3 4 12 13 12 13 5 5 10 14 16 17 11 19 19 12 9 8 9 9 9 8 7 9 9 10 9 9
10 8 8 7 7 5 5 5 5 4 3 3 2 2 2 3 3 2 3 5 10 7 6 6 7 9 8 7 7 10 7 7 7 8 8 7 8 9 10 9 9 10 8
9 8 8 7 7 6 5 5 5 2 5 4 2 2 1 3 2 5 4 3 3 6 3 5 6 5 7 7 7 7 7 7 7 7 7 8 8 9 10 10 9 9 9
9 7 7 7 6 6 5 3 9 9 10 7 5 4 2 3 10 10 10 10 11 10 5 4 4 4 5 5 6 7 6 7 7 7 7 7 8 8 9 8 9 8 8
10 9 7 7 6 7 6 7 7 8 11 7 5 5 10 8 10 9 8 10 10 8 4 3 3 4 4 6 6 7 6 6 7 7 7 7 8 8 8 9 9 9 8
8 10 8 6 6 6 6 5 5 6 5 0 5 6 7 9 9 9 8 8 4 5 4 4 3 4 5 6 6 6 6 5 6 7 6 7 6 8 8 9 9 8 9
9 6 5 5 5 6 5 5 5 5 5 3 1 5 5 9 10 10 11 3 2 3 3 3 3 4 4 4 4 3 3 4 4 3 5 5 4 6 7 8 8 9 10
6 9 7 6 5 4 4 5 4 5 5 4 3 3 1 3 2 2 3 2 2 2 2 3 3 2 3 4 3 4 3 4 4 5 4 3 4 5 6 7 7 7 8
6 7 8 6 5 5 5 5 5 5 5 4 3 3 4 4 4 3 2 2 2 1 1 2 2 2 2 3 3 3 3 3 4 4 4 4 3 4 5 5 6 7 7
7 7 6 6 5 5 4 4 4 5 5 5 2 2 5 3 4 3 3 2 1 1 1 1 1 2 2 2 2 2 2 3 3 3 4 3 4 4 5 5 5 5 7
8 8 6 5 5 6 4 4 5 5 5 4 4 4 3 3 3 3 3 2 1 1 2 1 2 3 2 2 2 2 2 3 3 1 2 2 3 3 3 4 5 4 5
8 7 7 5 5 5 5 5 4 5 5 5 4 4 4 4 4 4 3 1 1 2 2 2 2 3 4 4 3 3 3 3 2 1 2 0 2 3 3 3 4 3 4
7 7 7 7 6 5 5 5 4 4 5 5 4 3 3 3 4 3 2 1 1 1 3 3 2 3 3 5 5 5 4 4 2 1 1 1 1 3 3 2 2 4 3
7 6 6 5 5 5 5 5 5 5 5 4 4 4 4 4 4 3 3 2 1 1 2 2 3 6 6 5 7 6 5 3 2 1 0 1 1 2 2 3 4 3 5
Wind_Direction
144 129 104 79 64 57 51 34 23 18 11 15 14 23 23 14 12 18 18 18 17 11 5 12 358 354 0 357 345 341 338 329 313 320 315 341 341 353 347 1 31 40 43
147 127 116 93 67 60 52 36 24 28 23 21 19 26 20 20 17 19 17 13 13 15 11 10 2 355 360 359 356 353 344 345 335 338 344 352 345 358 345 6 15 41 62
133 131 126 113 87 60 45 45 34 28 29 25 27 20 13 32 30 20 17 10 7 5 7 4 2 360 2 360 1 1 355 348 351 1 1 360 350 350 344 360 28 359 51
142 139 138 135 141 110 75 53 39 27 33 21 15 4 359 21 45 32 22 15 10 13 13 4 4 10 8 6 7 10 0 359 354 3 9 10 359 351 356 348 11 26 22
158 156 164 156 150 135 92 72 47 44 32 22 13 6 359 17 40 45 22 12 8 10 9 10 7 24 21 26 20 13 19 12 8 7 10 19 5 358 2 340 302 297 34
161 168 155 163 164 161 145 115 79 50 27 30 13 10 1 10 37 38 38 12 2 4 8 2 1 16 19 18 34 31 32 26 23 15 5 21 6 3 341 344 337 349 26
156 151 151 160 162 164 151 130 93 64 39 28 17 13 2 346 39 37 36 7 7 3 356 12 15 14 22 10 19 28 28 27 30 20 20 18 10 356 341 353 6 22 38
150 149 148 152 158 159 153 134 113 75 49 38 21 8 11 9 47 38 36 20 22 15 14 32 24 20 25 24 18 27 26 21 21 24 26 22 18 12 4 359 4 345 38
153 155 154 151 150 152 153 146 129 103 73 54 37 13 11 0 17 47 40 34 31 17 17 10 43 30 30 29 26 26 22 18 14 25 30 30 27 28 29 14 23 16 15
161 158 146 149 146 142 146 150 134 120 89 63 46 22 13 354 355 36 56 45 33 16 7 5 29 39 34 35 31 27 27 6 3 11 15 18 18 19 25 28 16 37 9
146 144 144 136 134 136 130 137 140 128 92 60 44 5 6 357 339 35 62 47 31 26 23 16 18 33 38 36 37 34 32 5 13 19 20 18 17 17 17 19 26 31 30
143 144 142 139 138 131 122 117 117 108 98 66 45 16 5 2 17 27 42 43 43 29 13 359 11 37 32 38 35 33 26 17 20 26 27 22 15 12 6 8 13 31 37
149 149 145 139 130 135 129 126 120 120 114 101 69 27 352 1 10 39 39 49 46 29 27 37 42 39 35 20 30 25 17 18 18 25 23 18 11 5 6 15 18 17 23
155 150 148 137 132 135 133 131 131 127 120 111 89 24 349 356 355 8 49 47 43 41 17 23 20 33 30 19 14 13 8 14 17 15 11 7 6 12 18 12 12 7 16
153 151 153 147 142 136 130 144 141 139 139 134 163 177 74 345 310 55 56 100 75 49 35 27 28 10 16 13 11 9 5 8 18 15 12 11 13 12 14 12 12 11 24
156 155 155 148 150 145 135 115 139 144 140 134 160 176 260 129 56 45 32 41 45 47 44 36 15 10 16 9 9 2 6 7 14 18 19 17 18 17 12 14 14 14 15
160 159 156 154 155 150 149 149 153 170 151 122 85 57 104 82 58 46 46 42 58 60 61 35 21 9 12 17 14 13 6 2 9 22 19 17 17 22 20 18 14 12 14
149 154 161 160 157 152 157 160 158 163 149 328 24 57 96 84 66 51 57 63 41 34 53 38 16 22 26 25 16 12 1 4 18 22 22 16 5 20 17 16 13 9 8
149 149 143 139 149 156 147 151 160 142 149 143 87 46 20 84 76 69 67 82 79 43 39 39 28 30 27 19 13 2 1 2 12 16 16 17 2 20 19 13 6 2 4
130 138 137 140 142 139 150 157 154 150 149 160 148 163 131 65 57 18 49 74 81 62 23 24 13 28 18 13 2 360 7 8 16 14 12 12 8 16 17 12 8 9 9
136 140 141 143 152 156 159 159 150 147 151 151 172 192 173 138 157 148 141 128 119 65 0 354 358 14 1 345 3 9 18 353 7 5 9 8 12 14 13 16 9 9 8
141 147 152 156 148 140 147 143 139 138 143 148 151 127 131 118 140 149 145 140 224 315 328 332 335 332 334 327 332 344 346 342 345 359 0 359 5 16 7 11 6 7 7
142 145 144 140 138 130 124 131 136 142 144 144 148 146 142 147 151 152 151 190 274 324 336 349 309 322 323 291 275 266 281 307 310 286 337 351 3 13 9 3 1 356 5
141 143 148 139 136 136 139 141 138 137 145 149 151 151 153 157 157 157 161 197 297 310 298 297 303 296 314 310 297 293 274 275 271 232 176 8 7 12 16 7 358 338 345
138 141 143 149 150 145 137 141 142 141 145 151 158 143 154 150 151 160 178 203 278 305 318 318 321 322 321 332 323 309 323 22 28 103 160 142 46 27 11 12 353 343 345
142 141 137 133 132 141 147 150 155 151 157 162 159 160 160 167 161 166 183 203 252 284 317 330 353 1 355 357 0 24 4 2 9 66 82 166 65 32 18 2 4 2 1